Time,TemperatureF,DewpointF,PressureIn,WindDirection,WindDirectionDegrees,WindSpeedMPH,WindSpeedGustMPH,Humidity,HourlyPrecipIn,Conditions,Clouds,dailyrainin,SoftwareType,DateUTC
2013-05-06 00:01:00,62.6,11.0,30.07,NE,45,3.5,3.5,13,0.00,CLR,,0.00,WeatherDisplay:10.37,2013-05-06 05:01:00,
2013-05-06 00:06:00,62.4,10.8,30.07,NE,45,2.3,2.3,13,0.00,CLR,,0.00,WeatherDisplay:10.37,2013-05-06 05:06:00,
2013-05-06 00:11:00,62.1,12.2,30.07,NE,45,2.3,2.6,14,0.00,CLR,,0.00,WeatherDisplay:10.37,2013-05-06 05:11:00,
2013-05-06 00:16:00,61.9,12.1,30.07,NE,45,2.3,0.0,14,0.00,CLR,,0.00,WeatherDisplay:10.37,2013-05-06 05:16:00,
2013-05-06 00:21:00,61.5,11.8,30.07,NE,45,0.0,0.0,14,0.00,CLR,,0.00,WeatherDisplay:10.37,2013-05-06 05:21:00,
2013-05-06 00:26:00,61.3,11.7,30.07,NE,45,1.2,0.0,14,0.00,CLR,,0.00,WeatherDisplay:10.37,2013-05-06 05:26:00,
2013-05-06 00:31:00,61.0,11.4,30.07,NE,45,2.3,2.3,14,0.00,CLR,,0.00,WeatherDisplay:10.37,2013-05-06 05:31:00,
2013-05-06 00:36:00,60.8,11.2,30.07,ENE,68,1.2,0.0,14,0.00,CLR,,0.00,WeatherDisplay:10.37,2013-05-06 05:36:00,
2013-05-06 00:41:00,60.8,11.2,30.07,NE,45,1.2,0.0,14,0.00,CLR,,0.00,WeatherDisplay:10.37,2013-05-06 05:41:00,
2013-05-06 00:46:00,60.6,11.1,30.07,NE,45,1.2,1.2,14,0.00,CLR,,0.00,WeatherDisplay:10.37,2013-05-06 05:46:00,
2013-05-06 00:51:00,60.3,10.8,30.07,NE,45,0.0,0.0,14,0.00,CLR,,0.00,WeatherDisplay:10.37,2013-05-06 05:51:00,
2013-05-06 00:56:00,59.9,10.5,30.07,NE,45,1.2,0.0,14,0.00,CLR,,0.00,WeatherDisplay:10.37,2013-05-06 05:56:00,
2013-05-06 01:01:00,59.7,10.4,30.07,NE,45,0.0,0.0,14,0.00,CLR,,0.00,WeatherDisplay:10.37,2013-05-06 06:01:00,
2013-05-06 01:06:00,59.7,10.4,30.07,NE,45,1.2,1.2,14,0.00,CLR,,0.00,WeatherDisplay:10.37,2013-05-06 06:06:00,
2013-05-06 01:11:00,59.5,10.2,30.07,ESE,112,1.6,1.6,14,0.00,CLR,,0.00,WeatherDisplay:10.37,2013-05-06 06:11:00,
2013-05-06 01:16:00,59.2,9.9,30.07,ESE,112,1.2,1.4,14,0.00,CLR,,0.00,WeatherDisplay:10.37,2013-05-06 06:16:00,
2013-05-06 01:21:00,58.8,9.6,30.07,ESE,112,0.0,0.0,14,0.00,CLR,,0.00,WeatherDisplay:10.37,2013-05-06 06:21:00,
2013-05-06 01:26:00,58.6,9.5,30.10,NNE,22,0.0,0.0,14,0.00,CLR,,0.00,WeatherDisplay:10.37,2013-05-06 06:26:00,
2013-05-06 01:31:00,58.5,9.4,30.10,NNE,22,0.0,0.0,14,0.00,CLR,,0.00,WeatherDisplay:10.37,2013-05-06 06:31:00,
2013-05-06 01:36:00,58.1,9.1,30.10,NNE,22,0.0,0.0,14,0.00,CLR,,0.00,WeatherDisplay:10.37,2013-05-06 06:36:00,
2013-05-06 01:41:00,57.9,8.9,30.07,NNE,22,0.0,0.0,14,0.00,CLR,,0.00,WeatherDisplay:10.37,2013-05-06 06:41:00,
2013-05-06 01:47:00,57.7,8.8,30.07,NNE,22,0.0,0.0,14,0.00,CLR,,0.00,WeatherDisplay:10.37,2013-05-06 06:47:00,
2013-05-06 01:52:00,57.6,8.6,30.07,NNE,22,0.0,0.0,14,0.00,CLR,,0.00,WeatherDisplay:10.37,2013-05-06 06:52:00,
2013-05-06 01:57:00,57.4,8.5,30.07,NNE,22,0.0,0.0,14,0.00,CLR,,0.00,WeatherDisplay:10.37,2013-05-06 06:57:00,
2013-05-06 02:02:00,57.0,8.2,30.07,NNE,22,0.0,0.0,14,0.00,CLR,,0.00,WeatherDisplay:10.37,2013-05-06 07:02:00,
2013-05-06 02:07:00,56.8,8.1,30.07,NNE,22,0.0,0.0,14,0.00,CLR,,0.00,WeatherDisplay:10.37,2013-05-06 07:07:00,
2013-05-06 02:12:00,56.7,9.5,30.07,NNE,22,0.0,0.0,15,0.00,CLR,,0.00,WeatherDisplay:10.37,2013-05-06 07:12:00,
2013-05-06 02:17:00,56.5,9.3,30.07,NNE,22,0.0,0.0,15,0.00,CLR,,0.00,WeatherDisplay:10.37,2013-05-06 07:17:00,
2013-05-06 02:22:00,56.3,9.2,30.07,NNE,22,2.3,2.3,15,0.00,CLR,,0.00,WeatherDisplay:10.37,2013-05-06 07:22:00,
2013-05-06 02:27:00,56.3,9.2,30.07,NNE,22,0.0,0.0,15,0.00,CLR,,0.00,WeatherDisplay:10.37,2013-05-06 07:27:00,
2013-05-06 02:32:00,56.3,9.2,30.07,NNE,22,0.0,0.0,15,0.00,CLR,,0.00,WeatherDisplay:10.37,2013-05-06 07:32:00,
2013-05-06 02:37:00,56.1,9.0,30.07,NNE,22,0.0,0.0,15,0.00,CLR,,0.00,WeatherDisplay:10.37,2013-05-06 07:37:00,
2013-05-06 02:42:00,56.1,9.0,30.07,NNE,22,0.0,0.0,15,0.00,CLR,,0.00,WeatherDisplay:10.37,2013-05-06 07:42:00,
2013-05-06 02:47:00,55.9,8.9,30.07,NNE,22,0.0,0.0,15,0.00,CLR,,0.00,WeatherDisplay:10.37,2013-05-06 07:47:00,
2013-05-06 02:52:00,55.8,8.7,30.07,NNE,22,0.0,0.0,15,0.00,CLR,,0.00,WeatherDisplay:10.37,2013-05-06 07:52:00,
2013-05-06 02:57:00,55.8,8.7,30.07,NNE,22,0.0,0.0,15,0.00,CLR,,0.00,WeatherDisplay:10.37,2013-05-06 07:57:00,
2013-05-06 03:02:00,55.6,8.6,30.07,NNE,22,0.0,0.0,15,0.00,CLR,,0.00,WeatherDisplay:10.37,2013-05-06 08:02:00,
2013-05-06 03:07:00,55.4,8.4,30.07,NNE,22,0.0,0.0,15,0.00,CLR,,0.00,WeatherDisplay:10.37,2013-05-06 08:07:00,
2013-05-06 03:12:00,55.4,8.4,30.04,NNE,22,0.0,0.0,15,0.00,CLR,,0.00,WeatherDisplay:10.37,2013-05-06 08:12:00,
2013-05-06 03:17:00,55.2,8.3,30.04,NNE,22,0.0,0.0,15,0.00,CLR,,0.00,WeatherDisplay:10.37,2013-05-06 08:17:00,
2013-05-06 03:22:00,55.0,8.1,30.04,NNE,22,0.0,0.0,15,0.00,CLR,,0.00,WeatherDisplay:10.37,2013-05-06 08:22:00,
2013-05-06 03:27:00,54.9,8.0,30.04,NNE,22,0.0,0.0,15,0.00,CLR,,0.00,WeatherDisplay:10.37,2013-05-06 08:27:00,
2013-05-06 03:32:00,54.7,7.9,30.04,NNE,22,0.0,0.0,15,0.00,CLR,,0.00,WeatherDisplay:10.37,2013-05-06 08:32:00,
2013-05-06 03:37:00,54.7,7.9,30.04,NNE,22,0.0,0.0,15,0.00,CLR,,0.00,WeatherDisplay:10.37,2013-05-06 08:37:00,
2013-05-06 03:42:00,54.5,7.7,30.04,NNE,22,0.0,0.0,15,0.00,CLR,,0.00,WeatherDisplay:10.37,2013-05-06 08:42:00,
2013-05-06 03:47:00,54.3,7.6,30.04,NNE,22,0.0,0.0,15,0.00,CLR,,0.00,WeatherDisplay:10.37,2013-05-06 08:47:00,
2013-05-06 03:55:00,54.3,7.6,30.04,NNE,22,0.0,0.0,15,0.00,CLR,,0.00,WeatherDisplay:10.37,2013-05-06 08:55:00,
2013-05-06 04:00:00,54.1,7.4,30.04,NNE,22,0.0,0.0,15,0.00,CLR,,0.00,WeatherDisplay:10.37,2013-05-06 09:00:00,
2013-05-06 04:05:00,54.1,7.4,30.04,NNE,22,0.0,0.0,15,0.00,CLR,,0.00,WeatherDisplay:10.37,2013-05-06 09:05:00,
2013-05-06 04:10:00,54.1,7.4,30.04,NNE,22,1.2,1.2,15,0.00,CLR,,0.00,WeatherDisplay:10.37,2013-05-06 09:10:00,
2013-05-06 04:15:00,54.1,7.4,30.04,NNE,22,0.0,0.0,15,0.00,CLR,,0.00,WeatherDisplay:10.37,2013-05-06 09:15:00,
2013-05-06 04:20:00,54.0,7.3,30.04,NNE,22,0.0,0.0,15,0.00,CLR,,0.00,WeatherDisplay:10.37,2013-05-06 09:20:00,
2013-05-06 04:25:00,54.0,7.3,30.04,NNE,22,0.0,0.0,15,0.00,CLR,,0.00,WeatherDisplay:10.37,2013-05-06 09:25:00,
2013-05-06 04:30:00,53.8,7.1,30.04,NNE,22,1.2,0.0,15,0.00,CLR,,0.00,WeatherDisplay:10.37,2013-05-06 09:30:00,
2013-05-06 04:35:00,53.6,7.0,30.04,NNE,22,0.0,0.0,15,0.00,CLR,,0.00,WeatherDisplay:10.37,2013-05-06 09:35:00,
2013-05-06 04:40:00,53.4,6.8,30.04,NNE,22,0.0,0.0,15,0.00,CLR,,0.00,WeatherDisplay:10.37,2013-05-06 09:40:00,
2013-05-06 04:45:00,53.2,10.8,30.04,NNE,22,0.0,0.0,18,0.00,CLR,,0.00,WeatherDisplay:10.37,2013-05-06 09:45:00,
2013-05-06 04:50:00,53.2,10.8,30.04,NNE,22,1.2,1.4,18,0.00,CLR,,0.00,WeatherDisplay:10.37,2013-05-06 09:50:00,
2013-05-06 04:55:00,53.6,11.0,30.04,NE,45,1.6,1.6,18,0.00,CLR,,0.00,WeatherDisplay:10.37,2013-05-06 09:55:00,
2013-05-06 05:00:00,54.0,7.3,30.04,NNE,22,2.3,2.3,15,0.00,CLR,,0.00,WeatherDisplay:10.37,2013-05-06 10:00:00,
2013-05-06 05:05:00,54.1,11.5,30.04,NNE,22,2.3,2.3,18,0.00,CLR,,0.00,WeatherDisplay:10.37,2013-05-06 10:05:00,
2013-05-06 05:10:00,54.1,11.5,30.04,NE,45,1.2,1.2,18,0.00,CLR,,0.00,WeatherDisplay:10.37,2013-05-06 10:10:00,
2013-05-06 05:15:00,53.8,11.2,30.04,NNE,22,2.3,2.3,18,0.00,CLR,,0.00,WeatherDisplay:10.37,2013-05-06 10:15:00,
2013-05-06 05:20:00,53.6,11.0,30.04,NNE,22,0.0,0.0,18,0.00,CLR,,0.00,WeatherDisplay:10.37,2013-05-06 10:20:00,
2013-05-06 05:25:00,53.6,11.0,30.04,NNE,22,2.3,2.3,18,0.00,CLR,,0.00,WeatherDisplay:10.37,2013-05-06 10:25:00,
2013-05-06 05:30:00,53.8,11.2,30.04,NNE,22,2.3,2.3,18,0.00,CLR,,0.00,WeatherDisplay:10.37,2013-05-06 10:30:00,
2013-05-06 05:40:00,53.8,11.2,30.04,NNE,22,1.2,0.0,18,0.00,CLR,,0.00,WeatherDisplay:10.37,2013-05-06 10:40:00,
2013-05-06 05:45:00,53.6,11.0,30.04,NNE,22,0.0,0.0,18,0.00,CLR,,0.00,WeatherDisplay:10.37,2013-05-06 10:45:00,
2013-05-06 05:50:00,53.4,10.9,30.04,NNE,22,1.2,0.0,18,0.00,CLR,,0.00,WeatherDisplay:10.37,2013-05-06 10:50:00,
2013-05-06 05:55:00,53.2,10.8,30.04,NNE,22,0.0,0.0,18,0.00,CLR,,0.00,WeatherDisplay:10.37,2013-05-06 10:55:00,
2013-05-06 06:00:00,53.2,10.8,30.04,NNE,22,1.2,0.0,18,0.00,CLR,,0.00,WeatherDisplay:10.37,2013-05-06 11:00:00,
2013-05-06 06:05:00,53.2,10.8,30.04,NNE,22,0.0,0.0,18,0.00,CLR,,0.00,WeatherDisplay:10.37,2013-05-06 11:05:00,
2013-05-06 06:10:00,52.9,10.5,30.04,NNE,22,1.2,1.2,18,0.00,CLR,,0.00,WeatherDisplay:10.37,2013-05-06 11:10:00,
2013-05-06 06:15:00,52.9,10.5,30.04,NNE,22,0.0,0.0,18,0.00,CLR,,0.00,WeatherDisplay:10.37,2013-05-06 11:15:00,
2013-05-06 06:20:00,52.7,13.8,30.04,NNE,22,0.0,0.0,21,0.00,CLR,,0.00,WeatherDisplay:10.37,2013-05-06 11:20:00,
2013-05-06 06:25:00,52.5,13.6,30.07,NNE,22,0.0,0.0,21,0.00,CLR,,0.00,WeatherDisplay:10.37,2013-05-06 11:25:00,
2013-05-06 06:30:00,52.2,13.3,30.07,NNE,22,0.0,0.0,21,0.00,CLR,,0.00,WeatherDisplay:10.37,2013-05-06 11:30:00,
2013-05-06 06:35:00,52.0,13.2,30.07,NNE,22,0.0,0.0,21,0.00,CLR,,0.00,WeatherDisplay:10.37,2013-05-06 11:35:00,
2013-05-06 06:40:00,52.0,15.3,30.10,NNE,22,0.0,0.0,23,0.00,CLR,,0.00,WeatherDisplay:10.37,2013-05-06 11:40:00,
2013-05-06 06:45:00,51.8,15.1,30.10,NNE,22,1.2,1.2,23,0.00,CLR,,0.00,WeatherDisplay:10.37,2013-05-06 11:45:00,
2013-05-06 06:50:00,52.2,15.4,30.10,NNE,22,1.2,1.2,23,0.00,CLR,,0.00,WeatherDisplay:10.37,2013-05-06 11:50:00,
2013-05-06 06:55:00,52.9,13.9,30.10,NNE,22,1.2,0.0,21,0.00,CLR,,0.00,WeatherDisplay:10.37,2013-05-06 11:55:00,
2013-05-06 07:00:00,52.9,13.9,30.10,NNE,22,0.0,0.0,21,0.00,CLR,,0.00,WeatherDisplay:10.37,2013-05-06 12:00:00,
2013-05-06 07:05:00,52.9,13.9,30.10,NNE,22,0.0,0.0,21,0.00,CLR,,0.00,WeatherDisplay:10.37,2013-05-06 12:05:00,
2013-05-06 07:10:00,52.7,13.8,30.10,NNE,22,0.0,0.0,21,0.00,CLR,,0.00,WeatherDisplay:10.37,2013-05-06 12:10:00,
2013-05-06 07:15:00,52.9,13.9,30.10,NNE,22,0.0,0.0,21,0.00,CLR,,0.00,WeatherDisplay:10.37,2013-05-06 12:15:00,
2013-05-06 07:20:00,53.4,13.3,30.10,NNE,22,0.0,0.0,20,0.00,CLR,,0.00,WeatherDisplay:10.37,2013-05-06 12:20:00,
2013-05-06 07:25:00,54.0,13.7,30.13,NNE,22,1.2,1.4,20,0.00,CLR,,0.00,WeatherDisplay:10.37,2013-05-06 12:25:00,
2013-05-06 07:30:00,54.9,12.1,30.13,NNE,22,2.2,2.2,18,0.00,CLR,,0.00,WeatherDisplay:10.37,2013-05-06 12:30:00,
2013-05-06 07:35:00,55.6,11.4,30.13,NNE,22,2.3,2.3,17,0.00,CLR,,0.00,WeatherDisplay:10.37,2013-05-06 12:35:00,
2013-05-06 07:40:00,56.3,12.0,30.10,NE,45,1.4,1.4,17,0.00,CLR,,0.00,WeatherDisplay:10.37,2013-05-06 12:40:00,
2013-05-06 07:45:00,57.0,12.6,30.10,NNE,22,2.0,2.0,17,0.00,CLR,,0.00,WeatherDisplay:10.37,2013-05-06 12:45:00,
2013-05-06 07:50:00,57.6,13.0,30.10,NE,45,2.3,2.3,17,0.00,CLR,,0.00,WeatherDisplay:10.37,2013-05-06 12:50:00,
2013-05-06 07:55:00,58.1,13.4,30.10,NE,45,3.5,3.5,17,0.00,CLR,,0.00,WeatherDisplay:10.37,2013-05-06 12:55:00,
2013-05-06 08:00:00,58.8,14.0,30.10,NE,45,2.3,2.3,17,0.00,CLR,,0.00,WeatherDisplay:10.37,2013-05-06 13:00:00,
2013-05-06 08:05:00,59.7,10.4,30.10,NE,45,2.4,2.4,14,0.00,CLR,,0.00,WeatherDisplay:10.37,2013-05-06 13:05:00,
2013-05-06 08:11:00,60.4,10.9,30.07,NE,45,3.8,3.8,14,0.00,CLR,,0.00,WeatherDisplay:10.37,2013-05-06 13:11:00,
2013-05-06 08:16:00,61.0,11.4,30.07,NE,45,3.5,3.6,14,0.00,CLR,,0.00,WeatherDisplay:10.37,2013-05-06 13:16:00,
2013-05-06 08:21:00,61.5,11.8,30.07,NE,45,4.6,4.6,14,0.00,CLR,,0.00,WeatherDisplay:10.37,2013-05-06 13:21:00,
2013-05-06 08:26:00,61.7,11.9,30.10,NE,45,4.6,4.6,14,0.00,CLR,,0.00,WeatherDisplay:10.37,2013-05-06 13:26:00,
2013-05-06 08:31:00,62.2,10.7,30.10,NE,45,4.6,4.6,13,0.00,CLR,,0.00,WeatherDisplay:10.37,2013-05-06 13:31:00,
2013-05-06 08:36:00,62.6,11.0,30.10,NE,45,3.8,3.8,13,0.00,CLR,,0.00,WeatherDisplay:10.37,2013-05-06 13:36:00,
2013-05-06 08:41:00,63.0,11.3,30.13,ENE,68,3.5,3.5,13,0.00,CLR,,0.00,WeatherDisplay:10.37,2013-05-06 13:41:00,
2013-05-06 08:46:00,63.1,11.4,30.13,NNE,22,3.3,3.3,13,0.00,CLR,,0.00,WeatherDisplay:10.37,2013-05-06 13:46:00,
2013-05-06 08:51:00,63.1,11.4,30.13,NE,45,2.3,2.3,13,0.00,CLR,,0.00,WeatherDisplay:10.37,2013-05-06 13:51:00,
2013-05-06 08:56:00,63.5,11.7,30.13,NE,45,2.3,2.3,13,0.00,CLR,,0.00,WeatherDisplay:10.37,2013-05-06 13:56:00,
2013-05-06 09:01:00,64.2,12.3,30.13,NE,45,2.3,2.3,13,0.00,CLR,,0.00,WeatherDisplay:10.37,2013-05-06 14:01:00,
2013-05-06 09:06:00,64.9,12.8,30.13,NE,45,3.5,3.5,13,0.00,CLR,,0.00,WeatherDisplay:10.37,2013-05-06 14:06:00,
2013-05-06 09:11:00,65.5,13.3,30.13,North,0,3.5,3.5,13,0.00,CLR,,0.00,WeatherDisplay:10.37,2013-05-06 14:11:00,
2013-05-06 09:16:00,65.5,13.3,30.13,NE,45,2.3,2.3,13,0.00,CLR,,0.00,WeatherDisplay:10.37,2013-05-06 14:16:00,
2013-05-06 09:21:00,65.8,11.7,30.13,NE,45,2.3,2.3,12,0.00,CLR,,0.00,WeatherDisplay:10.37,2013-05-06 14:21:00,
2013-05-06 09:26:00,66.6,12.3,30.16,NE,45,4.6,4.6,12,0.00,CLR,,0.00,WeatherDisplay:10.37,2013-05-06 14:26:00,
2013-05-06 09:31:00,67.3,12.9,30.16,NNE,22,4.6,4.6,12,0.00,CLR,,0.00,WeatherDisplay:10.37,2013-05-06 14:31:00,
2013-05-06 09:36:00,67.5,13.0,30.16,NE,45,3.5,3.5,12,0.00,CLR,,0.00,WeatherDisplay:10.37,2013-05-06 14:36:00,
2013-05-06 09:41:00,67.6,13.1,30.16,ESE,112,2.9,2.9,12,0.00,CLR,,0.00,WeatherDisplay:10.37,2013-05-06 14:41:00,
2013-05-06 09:46:00,68.0,13.4,30.16,NE,45,4.6,4.6,12,0.00,CLR,,0.00,WeatherDisplay:10.37,2013-05-06 14:46:00,
2013-05-06 09:51:00,68.4,13.7,30.16,NE,45,4.6,4.6,12,0.00,CLR,,0.00,WeatherDisplay:10.37,2013-05-06 14:51:00,
2013-05-06 09:56:00,68.9,14.1,30.16,NE,45,5.6,5.6,12,0.00,CLR,,0.00,WeatherDisplay:10.37,2013-05-06 14:56:00,
2013-05-06 10:01:00,69.3,14.4,30.16,NNE,22,3.5,3.5,12,0.00,CLR,,0.00,WeatherDisplay:10.37,2013-05-06 15:01:00,
2013-05-06 10:06:00,69.6,14.7,30.16,NE,45,4.9,4.9,12,0.00,CLR,,0.00,WeatherDisplay:10.37,2013-05-06 15:06:00,
2013-05-06 10:11:00,70.2,15.1,30.16,NNE,22,2.3,2.3,12,0.00,CLR,,0.00,WeatherDisplay:10.37,2013-05-06 15:11:00,
2013-05-06 10:16:00,70.7,15.5,30.16,NNE,22,5.8,5.8,12,0.00,CLR,,0.00,WeatherDisplay:10.37,2013-05-06 15:16:00,
2013-05-06 10:21:00,71.1,15.8,30.16,NNE,22,2.3,2.3,12,0.00,CLR,,0.00,WeatherDisplay:10.37,2013-05-06 15:21:00,
2013-05-06 10:26:00,71.4,14.1,30.16,NNE,22,3.5,3.5,11,0.00,CLR,,0.00,WeatherDisplay:10.37,2013-05-06 15:26:00,
2013-05-06 10:32:00,71.8,14.4,30.16,ESE,112,4.6,4.6,11,0.00,CLR,,0.00,WeatherDisplay:10.37,2013-05-06 15:32:00,
2013-05-06 10:37:00,72.3,14.8,30.16,NE,45,3.5,3.5,11,0.00,CLR,,0.00,WeatherDisplay:10.37,2013-05-06 15:37:00,
2013-05-06 10:43:00,72.7,15.1,30.13,ESE,112,2.3,2.3,11,0.00,CLR,,0.00,WeatherDisplay:10.37,2013-05-06 15:43:00,
2013-05-06 10:48:00,73.0,15.4,30.13,NNE,22,1.2,2.2,11,0.00,CLR,,0.00,WeatherDisplay:10.37,2013-05-06 15:48:00,
2013-05-06 10:53:00,74.1,16.2,30.13,NE,45,4.6,4.6,11,0.00,CLR,,0.00,WeatherDisplay:10.37,2013-05-06 15:53:00,
2013-05-06 11:02:00,75.6,17.3,30.13,NNE,22,3.5,3.5,11,0.00,CLR,,0.00,WeatherDisplay:10.37,2013-05-06 16:02:00,
2013-05-06 11:07:00,75.6,17.3,30.13,ENE,68,5.8,5.8,11,0.00,CLR,,0.00,WeatherDisplay:10.37,2013-05-06 16:07:00,
2013-05-06 11:12:00,75.9,17.6,30.13,NW,315,6.9,6.9,11,0.00,CLR,,0.00,WeatherDisplay:10.37,2013-05-06 16:12:00,
2013-05-06 11:17:00,75.7,17.4,30.13,East,90,4.6,4.6,11,0.00,CLR,,0.00,WeatherDisplay:10.37,2013-05-06 16:17:00,
2013-05-06 11:22:00,75.7,17.4,30.13,NE,45,5.8,5.8,11,0.00,CLR,,0.00,WeatherDisplay:10.37,2013-05-06 16:22:00,
2013-05-06 11:27:00,75.9,17.6,30.10,NE,45,6.9,6.9,11,0.00,CLR,,0.00,WeatherDisplay:10.37,2013-05-06 16:27:00,
2013-05-06 11:52:00,78.8,17.6,30.07,ENE,68,3.5,3.5,10,0.00,CLR,,0.00,WeatherDisplay:10.37,2013-05-06 16:52:00,
2013-05-06 11:57:00,78.1,17.0,30.10,ENE,68,5.8,5.8,10,0.00,CLR,,0.00,WeatherDisplay:10.37,2013-05-06 16:57:00,
2013-05-06 12:02:00,78.3,17.2,30.10,NE,45,6.9,6.9,10,0.00,CLR,,0.00,WeatherDisplay:10.37,2013-05-06 17:02:00,
2013-05-06 12:07:00,77.9,16.9,30.10,North,0,5.8,5.8,10,0.00,CLR,,0.00,WeatherDisplay:10.37,2013-05-06 17:07:00,
2013-05-06 12:12:00,78.3,53.3,30.10,ENE,68,5.8,5.8,42,0.00,CLR,,0.00,WeatherDisplay:10.37,2013-05-06 17:12:00,
2013-05-06 12:17:00,78.6,53.6,30.10,NE,45,8.5,8.5,42,0.00,CLR,,0.00,WeatherDisplay:10.37,2013-05-06 17:17:00,
2013-05-06 12:22:00,78.6,53.6,30.10,ESE,112,4.6,4.6,42,0.00,CLR,,0.00,WeatherDisplay:10.37,2013-05-06 17:22:00,
2013-05-06 12:27:00,78.1,53.1,30.07,North,0,5.8,5.8,42,0.00,CLR,,0.00,WeatherDisplay:10.37,2013-05-06 17:27:00,
2013-05-06 12:36:00,77.4,52.5,30.07,NNE,22,5.8,5.8,42,0.00,CLR,,0.00,WeatherDisplay:10.37,2013-05-06 17:36:00,
2013-05-06 12:41:00,77.0,52.1,30.10,East,90,9.2,9.2,42,0.00,CLR,,0.00,WeatherDisplay:10.37,2013-05-06 17:41:00,
2013-05-06 12:46:00,76.6,51.8,30.10,NE,45,3.5,3.5,42,0.00,CLR,,0.00,WeatherDisplay:10.37,2013-05-06 17:46:00,
2013-05-06 12:51:00,76.5,51.7,30.10,ESE,112,4.6,4.6,42,0.00,CLR,,0.00,WeatherDisplay:10.37,2013-05-06 17:51:00,
2013-05-06 12:56:00,76.3,51.5,30.07,NE,45,5.8,5.8,42,0.00,CLR,,0.00,WeatherDisplay:10.37,2013-05-06 17:56:00,
2013-05-06 13:01:00,76.5,51.0,30.07,NE,45,2.3,2.4,41,0.00,CLR,,0.00,WeatherDisplay:10.37,2013-05-06 18:01:00,
2013-05-06 13:06:00,77.2,51.7,30.07,NE,45,3.5,3.5,41,0.00,CLR,,0.00,WeatherDisplay:10.37,2013-05-06 18:06:00,
2013-05-06 13:11:00,76.8,51.3,30.04,NE,45,3.5,3.6,41,0.00,CLR,,0.00,WeatherDisplay:10.37,2013-05-06 18:11:00,
2013-05-06 13:16:00,77.4,51.8,30.04,NNE,22,5.8,5.8,41,0.00,CLR,,0.00,WeatherDisplay:10.37,2013-05-06 18:16:00,
2013-05-06 13:21:00,77.9,52.3,30.04,NE,45,6.9,6.9,41,0.00,CLR,,0.00,WeatherDisplay:10.37,2013-05-06 18:21:00,
2013-05-06 13:26:00,78.1,52.5,30.04,NNE,22,6.9,6.9,41,0.00,CLR,,0.00,WeatherDisplay:10.37,2013-05-06 18:26:00,
2013-05-06 13:32:00,78.6,52.9,30.04,East,90,5.8,6.0,41,0.00,CLR,,0.00,WeatherDisplay:10.37,2013-05-06 18:32:00,
2013-05-06 13:37:00,79.0,53.3,30.04,NNE,22,11.5,11.5,41,0.00,CLR,,0.00,WeatherDisplay:10.37,2013-05-06 18:37:00,
2013-05-06 13:42:00,79.7,53.9,30.01,NNE,22,2.3,2.3,41,0.00,CLR,,0.00,WeatherDisplay:10.37,2013-05-06 18:42:00,
2013-05-06 13:47:00,80.2,54.4,30.01,NE,45,5.8,5.8,41,0.00,CLR,,0.00,WeatherDisplay:10.37,2013-05-06 18:47:00,
2013-05-06 13:52:00,80.6,54.7,30.01,NNE,22,8.1,8.1,41,0.00,CLR,,0.00,WeatherDisplay:10.37,2013-05-06 18:52:00,
2013-05-06 13:57:00,80.2,54.4,30.01,NE,45,3.5,3.5,41,0.00,CLR,,0.00,WeatherDisplay:10.37,2013-05-06 18:57:00,
2013-05-06 14:02:00,80.8,54.9,30.01,NNW,338,6.9,6.9,41,0.00,CLR,,0.00,WeatherDisplay:10.37,2013-05-06 19:02:00,
2013-05-06 14:07:00,80.6,54.7,30.01,NW,315,3.5,3.5,41,0.00,CLR,,0.00,WeatherDisplay:10.37,2013-05-06 19:07:00,
2013-05-06 14:12:00,80.8,54.9,30.04,NNE,22,5.8,5.8,41,0.00,CLR,,0.00,WeatherDisplay:10.37,2013-05-06 19:12:00,
2013-05-06 14:17:00,81.0,55.0,30.04,North,0,5.8,5.8,41,0.00,CLR,,0.00,WeatherDisplay:10.37,2013-05-06 19:17:00,
2013-05-06 14:22:00,81.1,55.2,30.04,NE,45,5.8,5.8,41,0.00,CLR,,0.00,WeatherDisplay:10.37,2013-05-06 19:22:00,
2013-05-06 14:27:00,81.3,55.4,30.04,NNW,338,6.9,6.9,41,0.00,CLR,,0.00,WeatherDisplay:10.37,2013-05-06 19:27:00,
2013-05-06 14:32:00,81.0,55.0,30.04,North,0,4.6,4.6,41,0.00,CLR,,0.00,WeatherDisplay:10.37,2013-05-06 19:32:00,
2013-05-06 14:37:00,81.7,55.7,30.04,NE,45,5.8,5.8,41,0.00,CLR,,0.00,WeatherDisplay:10.37,2013-05-06 19:37:00,
2013-05-06 14:42:00,82.2,56.2,30.04,NE,45,5.8,5.8,41,0.00,CLR,,0.00,WeatherDisplay:10.37,2013-05-06 19:42:00,
2013-05-06 14:47:00,82.0,56.0,30.04,NE,45,8.1,8.1,41,0.00,CLR,,0.00,WeatherDisplay:10.37,2013-05-06 19:47:00,
2013-05-06 14:52:00,81.1,55.2,30.04,NW,315,4.6,4.6,41,0.00,CLR,,0.00,WeatherDisplay:10.37,2013-05-06 19:52:00,
2013-05-06 14:57:00,80.2,54.4,30.04,NNW,338,4.6,4.6,41,0.00,CLR,,0.00,WeatherDisplay:10.37,2013-05-06 19:57:00,
2013-05-06 15:02:00,79.5,53.8,30.04,ENE,68,4.6,4.6,41,0.00,CLR,,0.00,WeatherDisplay:10.37,2013-05-06 20:02:00,
2013-05-06 15:07:00,79.5,53.8,30.04,NE,45,5.8,5.8,41,0.00,CLR,,0.00,WeatherDisplay:10.37,2013-05-06 20:07:00,
2013-05-06 15:12:00,79.7,53.9,30.01,ENE,68,3.5,3.5,41,0.00,CLR,,0.00,WeatherDisplay:10.37,2013-05-06 20:12:00,
2013-05-06 15:17:00,79.9,54.1,30.01,WNW,292,4.6,4.6,41,0.00,CLR,,0.00,WeatherDisplay:10.37,2013-05-06 20:17:00,
2013-05-06 15:22:00,79.7,53.9,30.01,NE,45,3.5,3.5,41,0.00,CLR,,0.00,WeatherDisplay:10.37,2013-05-06 20:22:00,
2013-05-06 15:27:00,79.3,53.6,30.04,ENE,68,5.8,5.8,41,0.00,CLR,,0.00,WeatherDisplay:10.37,2013-05-06 20:27:00,
2013-05-06 15:32:00,78.6,52.9,30.04,ENE,68,3.5,3.5,41,0.00,CLR,,0.00,WeatherDisplay:10.37,2013-05-06 20:32:00,
2013-05-06 15:37:00,78.6,52.9,30.04,NW,315,2.3,0.0,41,0.00,CLR,,0.00,WeatherDisplay:10.37,2013-05-06 20:37:00,
2013-05-06 15:42:00,77.4,51.8,30.04,North,0,2.3,2.3,41,0.00,CLR,,0.00,WeatherDisplay:10.37,2013-05-06 20:42:00,
2013-05-06 15:47:00,77.0,51.5,30.04,NNE,22,3.5,3.5,41,0.00,CLR,,0.00,WeatherDisplay:10.37,2013-05-06 20:47:00,
2013-05-06 15:53:00,76.8,51.3,30.04,NE,45,2.3,2.3,41,0.00,CLR,,0.00,WeatherDisplay:10.37,2013-05-06 20:53:00,
2013-05-06 15:57:00,76.6,51.2,30.01,NE,45,4.6,4.6,41,0.00,CLR,,0.00,WeatherDisplay:10.37,2013-05-06 20:57:00,
2013-05-06 17:39:00,76.5,52.9,29.98,NNE,22,2.3,2.4,44,0.00,SCT,,0.00,WeatherDisplay:10.37,2013-05-06 22:39:00,
2013-05-06 17:44:00,77.2,50.3,29.98,North,0,8.1,8.1,39,0.00,BKN,,0.00,WeatherDisplay:10.37,2013-05-06 22:44:00,
2013-05-06 17:49:00,77.2,50.3,29.98,NNW,338,5.8,5.8,39,0.00,BKN,,0.00,WeatherDisplay:10.37,2013-05-06 22:49:00,
2013-05-06 17:54:00,76.6,49.8,29.98,NE,45,4.6,4.6,39,0.00,BKN,,0.00,WeatherDisplay:10.37,2013-05-06 22:54:00,
2013-05-06 17:59:00,76.5,49.7,29.98,NW,315,5.6,5.6,39,0.00,BKN,,0.00,WeatherDisplay:10.37,2013-05-06 22:59:00,
2013-05-06 19:04:00,74.1,16.2,29.98,NNE,22,5.8,5.8,11,0.00,BKN,,0.00,WeatherDisplay:10.37,2013-05-07 00:04:00,
2013-05-06 19:09:00,74.1,16.2,30.01,NNE,22,4.6,4.6,11,0.00,BKN,,0.00,WeatherDisplay:10.37,2013-05-07 00:09:00,
2013-05-06 19:14:00,73.8,15.9,30.01,NNE,22,4.6,5.6,11,0.00,FEW,,0.00,WeatherDisplay:10.37,2013-05-07 00:14:00,
2013-05-06 19:19:00,73.8,15.9,30.01,NW,315,6.2,6.2,11,0.00,FEW,,0.00,WeatherDisplay:10.37,2013-05-07 00:19:00,
2013-05-06 19:24:00,73.4,15.6,29.98,North,0,4.6,4.6,11,0.00,FEW,,0.00,WeatherDisplay:10.37,2013-05-07 00:24:00,
2013-05-06 19:29:00,73.2,15.5,29.98,NNE,22,6.9,6.9,11,0.00,FEW,,0.00,WeatherDisplay:10.37,2013-05-07 00:29:00,
2013-05-06 19:34:00,73.2,15.5,29.98,North,0,3.5,3.8,11,0.00,FEW,,0.00,WeatherDisplay:10.37,2013-05-07 00:34:00,
2013-05-06 19:39:00,73.0,15.4,29.98,NE,45,5.8,5.8,11,0.00,FEW,,0.00,WeatherDisplay:10.37,2013-05-07 00:39:00,
2013-05-06 19:44:00,72.9,15.2,29.98,NNE,22,4.6,4.6,11,0.00,FEW,,0.00,WeatherDisplay:10.37,2013-05-07 00:44:00,
2013-05-06 19:49:00,72.7,15.1,29.98,NE,45,3.5,3.5,11,0.00,FEW,,0.00,WeatherDisplay:10.37,2013-05-07 00:49:00,
2013-05-06 19:54:00,72.5,14.9,29.98,NNE,22,5.8,5.8,11,0.00,FEW,,0.00,WeatherDisplay:10.37,2013-05-07 00:54:00,
2013-05-06 19:59:00,72.3,14.8,29.98,NE,45,5.8,5.8,11,0.00,FEW,,0.00,WeatherDisplay:10.37,2013-05-07 00:59:00,
2013-05-06 20:04:00,72.0,14.5,29.98,NE,45,5.8,5.8,11,0.00,CLR,,0.00,WeatherDisplay:10.37,2013-05-07 01:04:00,
2013-05-06 20:09:00,71.6,14.2,29.95,NNE,22,4.6,4.6,11,0.00,CLR,,0.00,WeatherDisplay:10.37,2013-05-07 01:09:00,
2013-05-06 20:14:00,71.4,14.1,29.95,NNE,22,6.9,6.9,11,0.00,CLR,,0.00,WeatherDisplay:10.37,2013-05-07 01:14:00,
2013-05-06 20:19:00,71.1,15.8,29.95,NNE,22,3.5,3.5,12,0.00,CLR,,0.00,WeatherDisplay:10.37,2013-05-07 01:19:00,
2013-05-06 20:24:00,70.5,15.4,29.98,NE,45,2.3,2.3,12,0.00,CLR,,0.00,WeatherDisplay:10.37,2013-05-07 01:24:00,
2013-05-06 20:29:00,70.3,15.3,29.98,North,0,2.3,2.3,12,0.00,CLR,,0.00,WeatherDisplay:10.37,2013-05-07 01:29:00,
2013-05-06 20:35:00,70.0,15.0,29.98,NNE,22,2.3,2.3,12,0.00,CLR,,0.00,WeatherDisplay:10.37,2013-05-07 01:35:00,
2013-05-06 20:40:00,69.6,14.7,29.98,NE,45,2.3,2.3,12,0.00,CLR,,0.00,WeatherDisplay:10.37,2013-05-07 01:40:00,
2013-05-06 20:45:00,69.4,14.6,29.98,NE,45,3.5,3.5,12,0.00,CLR,,0.00,WeatherDisplay:10.37,2013-05-07 01:45:00,
2013-05-06 20:50:00,69.1,14.3,29.98,NE,45,2.3,2.3,12,0.00,CLR,,0.00,WeatherDisplay:10.37,2013-05-07 01:50:00,
2013-05-06 20:55:00,68.9,14.1,30.01,NNE,22,2.3,2.3,12,0.00,CLR,,0.00,WeatherDisplay:10.37,2013-05-07 01:55:00,
2013-05-06 21:00:00,68.7,14.0,30.01,North,0,3.5,3.5,12,0.00,CLR,,0.00,WeatherDisplay:10.37,2013-05-07 02:00:00,
2013-05-06 21:05:00,68.4,13.7,30.01,NE,45,2.3,2.3,12,0.00,CLR,,0.00,WeatherDisplay:10.37,2013-05-07 02:05:00,
2013-05-06 21:10:00,68.0,13.4,30.01,North,0,1.2,0.0,12,0.00,CLR,,0.00,WeatherDisplay:10.37,2013-05-07 02:10:00,
2013-05-06 21:15:00,67.6,13.1,30.01,NW,315,1.2,0.0,12,0.00,CLR,,0.00,WeatherDisplay:10.37,2013-05-07 02:15:00,
2013-05-06 21:20:00,67.5,13.0,30.01,NW,315,0.0,0.0,12,0.00,CLR,,0.00,WeatherDisplay:10.37,2013-05-07 02:20:00,
2013-05-06 21:25:00,67.1,12.7,30.01,NW,315,0.0,0.0,12,0.00,CLR,,0.00,WeatherDisplay:10.37,2013-05-07 02:25:00,
2013-05-06 21:30:00,66.7,12.4,30.01,NW,315,1.2,1.2,12,0.00,CLR,,0.00,WeatherDisplay:10.37,2013-05-07 02:30:00,
2013-05-06 21:35:00,66.4,12.2,30.01,NNW,338,1.2,1.6,12,0.00,CLR,,0.00,WeatherDisplay:10.37,2013-05-07 02:35:00,
2013-05-06 21:40:00,66.2,12.0,30.01,NNW,338,1.2,0.0,12,0.00,CLR,,0.00,WeatherDisplay:10.37,2013-05-07 02:40:00,
2013-05-06 21:45:00,65.7,13.4,30.01,NNW,338,2.3,2.3,13,0.00,CLR,,0.00,WeatherDisplay:10.37,2013-05-07 02:45:00,
2013-05-06 21:50:00,65.5,13.3,30.01,NNW,338,1.2,1.2,13,0.00,CLR,,0.00,WeatherDisplay:10.37,2013-05-07 02:50:00,
2013-05-06 21:55:00,65.1,13.0,30.04,NNW,338,0.0,0.0,13,0.00,CLR,,0.00,WeatherDisplay:10.37,2013-05-07 02:55:00,
2013-05-06 22:00:00,64.4,12.4,30.04,NNW,338,0.0,0.0,13,0.00,CLR,,0.00,WeatherDisplay:10.37,2013-05-07 03:00:00,
2013-05-06 22:05:00,64.2,12.3,30.04,NNW,338,0.0,0.0,13,0.00,CLR,,0.00,WeatherDisplay:10.37,2013-05-07 03:05:00,
2013-05-06 22:10:00,64.2,12.3,30.04,NNW,338,1.2,1.2,13,0.00,CLR,,0.00,WeatherDisplay:10.37,2013-05-07 03:10:00,
2013-05-06 22:15:00,64.0,12.1,30.04,NNW,338,1.2,1.2,13,0.00,CLR,,0.00,WeatherDisplay:10.37,2013-05-07 03:15:00,
2013-05-06 22:20:00,64.0,12.1,30.04,ENE,68,2.3,2.4,13,0.00,CLR,,0.00,WeatherDisplay:10.37,2013-05-07 03:20:00,
2013-05-06 22:25:00,64.2,12.3,30.04,ENE,68,1.2,0.0,13,0.00,CLR,,0.00,WeatherDisplay:10.37,2013-05-07 03:25:00,
2013-05-06 22:30:00,64.4,12.4,30.04,ENE,68,2.3,2.3,13,0.00,CLR,,0.00,WeatherDisplay:10.37,2013-05-07 03:30:00,
2013-05-06 22:35:00,64.4,12.4,30.04,NE,45,1.2,0.0,13,0.00,CLR,,0.00,WeatherDisplay:10.37,2013-05-07 03:35:00,
2013-05-06 22:40:00,64.0,12.1,30.04,ESE,112,2.3,2.3,13,0.00,CLR,,0.00,WeatherDisplay:10.37,2013-05-07 03:40:00,
2013-05-06 22:45:00,63.9,12.0,30.04,ENE,68,1.2,0.0,13,0.00,CLR,,0.00,WeatherDisplay:10.37,2013-05-07 03:45:00,
2013-05-06 22:50:00,63.7,11.8,30.04,NNE,22,1.2,1.2,13,0.00,CLR,,0.00,WeatherDisplay:10.37,2013-05-07 03:50:00,
2013-05-06 22:55:00,63.7,11.8,30.04,NNE,22,2.3,2.3,13,0.00,CLR,,0.00,WeatherDisplay:10.37,2013-05-07 03:55:00,
2013-05-06 23:00:00,64.0,12.1,30.04,NNE,22,2.4,2.4,13,0.00,CLR,,0.00,WeatherDisplay:10.37,2013-05-07 04:00:00,
2013-05-06 23:01:00,64.0,12.1,30.04,North,0,2.3,2.3,13,0.00,CLR,,0.00,WeatherDisplay:10.37,2013-05-07 04:01:00,
2013-05-06 23:06:00,64.2,12.3,30.04,ENE,68,2.4,2.4,13,0.00,CLR,,0.00,WeatherDisplay:10.37,2013-05-07 04:06:00,
2013-05-06 23:11:00,64.0,12.1,30.04,NE,45,2.3,2.3,13,0.00,CLR,,0.00,WeatherDisplay:10.37,2013-05-07 04:11:00,
2013-05-06 23:16:00,64.0,12.1,30.04,NE,45,2.3,2.3,13,0.00,CLR,,0.00,WeatherDisplay:10.37,2013-05-07 04:16:00,
2013-05-06 23:21:00,64.0,12.1,30.04,NE,45,4.6,4.6,13,0.00,CLR,,0.00,WeatherDisplay:10.37,2013-05-07 04:21:00,
2013-05-06 23:26:00,64.0,12.1,30.04,NE,45,2.3,2.3,13,0.00,CLR,,0.00,WeatherDisplay:10.37,2013-05-07 04:26:00,
2013-05-06 23:31:00,63.9,12.0,30.04,ENE,68,3.5,3.5,13,0.00,CLR,,0.00,WeatherDisplay:10.37,2013-05-07 04:31:00,
2013-05-06 23:36:00,63.9,12.0,30.04,ENE,68,2.3,2.3,13,0.00,CLR,,0.00,WeatherDisplay:10.37,2013-05-07 04:36:00,
2013-05-06 23:41:00,63.9,12.0,30.04,NE,45,1.2,1.2,13,0.00,CLR,,0.00,WeatherDisplay:10.37,2013-05-07 04:41:00,
2013-05-06 23:46:00,63.7,11.8,30.04,ESE,112,1.2,1.2,13,0.00,CLR,,0.00,WeatherDisplay:10.37,2013-05-07 04:46:00,
2013-05-06 23:51:00,63.5,11.7,30.04,NNE,22,2.3,2.3,13,0.00,CLR,,0.00,WeatherDisplay:10.37,2013-05-07 04:51:00,
2013-05-06 23:56:00,63.3,11.6,30.04,NE,45,2.2,2.2,13,0.00,CLR,,0.00,WeatherDisplay:10.37,2013-05-07 04:56:00,